全球卫星定位系统 GPS 81星 (NAVSTAR 81 (USA 319))

导读

NAVSTAR 81(USA 319)是美国于2021年6月17日发射的GPS导航卫星,隶属于美国全球定位系统(NAVSTAR GPS)。该卫星运行在约784千米高度的中地球轨道,轨道倾角约85度,旨在为全球用户提供精准的定位、测速与授时服务,支持民用导航与军事定位需求,是美国GPS系统组网更新的重要组成部分,延续了GPS系统全球覆盖、高精度定位的服务能力。

基本信息
目录编号:
48859
目录名称:
NAVSTAR 81 (USA 319)
国际标识:
2021-054A
轨道中心:
EARTH
卫星名称:
GPS 81星
卫星全名:
全球卫星定位系统 GPS 81星 (NAVSTAR 81 (USA 319))
卫星状态:
在轨 (已飞行1821 天)
发射日期:
2021-06-17 UTC
国别 :
美国 (US)
星等 :
--
轨道信息
数据来源 国际轨道数据 AOE轨道数据
星历时间 2026-06-12T07:39:54+0800
21小时前
查看轨道信息
2026-06-13T02:00:00+0800
3小时前
查看轨道信息
半长轴 26559.863km 26559.881km
偏心率 0.0025283 0.0025321
轨道倾角 55.177° 55.176°
近地点辐角 228.578° 228.546°
升交点赤经 332.669° 332.638°
平近点角 104.251° 295.917°
近地点 20114.574km 20114.491km
远地点 20248.878km 20248.997km
周期 717.957分钟 717.958分钟
每日圈数 2.005691 2.005689
详细信息
平衡模式:
三轴稳定
覆盖范围:
全球
运营商:
美国太空军
运营商所在国:
美国
制造商(研发单位):
洛克希德·马丁公司
制造商所在国:
美国
使用方式:
暂无
工作目标:
提供军用及民用全球定位与导航服务
预期寿命:
15年
卫星简介
全球定位系统(英语:Global Positioning System,通常简称GPS),又称全球卫星定位系统,是美国国防部研制,美国太空军运营与维护的中地球轨道卫星导航系统。它可以为地球表面约98%的地区提供准确的定位、测速和高精度的标准时间。全球定位系统可满足位于全球地面任何一处或近地空间的军事用户连续且精确地确定三维位置、三维运动和时间的需求。该系统包括太空中的31颗GPS人造卫星.该卫星仍在工作。
2D轨道图
3D轨道图
轨道高度分析图
轨道倾角分析图
轨道综合分析图
查看轨道综合分析图